Flag for U.S.A. Weather past 2 weeks in Germantown, Maryland, U.S.A.

Now
68 °F

Passing clouds.


Feels Like: 68 °F
Forecast: 58 / 82 °F
Wind: 5 mph from Northeast

Location: Frederick Municipal Airport

Current Time: Aug 27, 2015 at 8:27:51 PM

Latest Report: Aug 27, 2015 at 7:52 PM


Visibility: 10 mi

Pressure: 30.13 "Hg

Humidity: 78%

Dew point: 61 °F

Location of GermantownLocation

Historic Weather in Germantown — Graph

°F

Germantown temperature yesterday

Maximum temperature yesterday: 81 °F (at 2:50 PM)
Minimum temperature yesterday: 59 °F (at 1:15 AM)
Average temperature yesterday: 66 °F

Past Weeks' High & Low Weather Summary

 TemperatureHumidityPressure
High97 °F (Aug 17, 2:45 PM)100% (Aug 13, 1:00 AM)30.20 "Hg (Aug 13, 1:00 AM)
Low54 °F (Aug 22, 3:45 AM)34% (Aug 17, 2:45 PM)29.84 "Hg (Aug 24, 6:45 PM)
Average70 °F83%30.06 "Hg
* Reported Aug 12 7:47 PM — Aug 27 6:52 PM, Germantown, Weather by CustomWeather, © 2015

Note: Actual official high and low records may vary slightly from our data, if they occured in-between our weather recording intervals... More about our weather records

Advertising

Germantown weather history for previous 24 hours

 ConditionsComfort  
Time TempWeatherWind HumidityBarometerVisibility
6:52 PM
Thu, Aug 27
75 °FPartly sunny.3 mph54%30.13 "Hg10 mi
5:49 PM75 °FPartly sunny.5 mph54%30.13 "Hg10 mi
3:50 PM79 °FMore clouds than sun.6 mph45%30.12 "Hg10 mi
2:49 PM79 °FPartly sunny.6 mph48%30.13 "Hg10 mi
1:49 PM79 °FPartly sunny.6 mph48%30.15 "Hg10 mi
12:46 PM77 °FPartly sunny.6 mph51%30.15 "Hg10 mi
11:45 AM77 °FScattered clouds.6 mph51%30.17 "Hg10 mi
10:59 AM75 °FSunny.3 mph54%30.18 "Hg10 mi
9:50 AM73 °FSunny.5 mph57%30.17 "Hg10 mi
8:45 AM66 °FScattered clouds.No wind83%30.17 "Hg10 mi
7:45 AM59 °FPartly sunny.No wind100%30.15 "Hg10 mi
6:55 AM55 °FPassing clouds.No wind100%30.15 "Hg10 mi
6:20 AM55 °FFog.No wind100%30.13 "Hg5 mi
6:15 AM55 °FClear.No wind100%30.12 "Hg7 mi
5:55 AM54 °FFog.No wind100%30.12 "Hg5 mi
5:35 AM55 °FClear.No wind100%30.12 "Hg7 mi
5:15 AM55 °FFog.No wind100%30.11 "Hg4 mi
4:55 AM55 °FFog.No wind100%30.12 "Hg2 mi
4:35 AM54 °FFog.No wind100%30.12 "Hg1 mi
4:15 AM54 °FFog.No wind100%30.12 "Hg5 mi
3:55 AM54 °FFog.No wind100%30.11 "Hg5 mi
3:15 AM55 °FPassing clouds.No wind100%30.11 "Hg7 mi
2:55 AM57 °FOvercast.No wind100%30.11 "Hg10 mi
2:35 AM57 °FOvercast.No wind100%30.12 "Hg10 mi
2:15 AM57 °FPassing clouds.No wind100%30.12 "Hg7 mi
1:55 AM55 °FFog.No wind100%30.12 "Hg2 mi
1:35 AM55 °FFog.No wind100%30.12 "Hg5 mi
1:15 AM57 °FClear.No wind100%30.12 "Hg7 mi
12:55 AM59 °FClear.No wind100%30.12 "Hg10 mi
12:35 AM59 °FClear.No wind100%30.12 "Hg10 mi
11:55 PM
Wed, Aug 26
61 °FClear.No wind94%30.12 "Hg10 mi
11:15 PM59 °FPassing clouds.No wind100%30.11 "Hg10 mi
10:55 PM61 °FClear.No wind94%30.11 "Hg10 mi
10:15 PM63 °FPassing clouds.No wind94%30.10 "Hg10 mi
9:55 PM66 °FOvercast.No wind78%30.10 "Hg10 mi
9:15 PM66 °FOvercast.No wind78%30.10 "Hg10 mi
8:55 PM68 °FMostly cloudy.No wind78%30.08 "Hg10 mi
Weather by CustomWeather, © 2015

See weather overviewHow to use our weather pages